Вернуться в каталог

COSMOS 1275 DEB

АктивенPO
NORAD 13803·DEBRIS·🇷🇺 Russia

Запущен Jun 4, 1981 с Plesetsk Cosmodrome

Loading…

Ближайшие Пролёты (ближайшие 24 часа)

TLE

СвежийSource: Space-Track

Эпоха: Sep 14, 2026, 09:26 UTC

1 13803U 81053GX  26257.39347844  .00001769  00000-0  94452-3 0  9996
2 13803  82.8129  46.4646 0040839 350.0722  38.6515 14.12377853225468

Отслеживайте COSMOS 1275 DEB в реальном времени с AllMySat

Download on the App Store